[ hide orbit diagram ]
For accurate long-term ephemerides, please instead use our Horizons system.This orbit viewer was implemented using two-body methods, and hence should not be used for determining accurate long-term trajectories (over several years or decades) or planetary encounter circumstances.
Orbital Elements at Epoch 2459000.5 (2020-May-31.0) TDB
Reference: JPL 16 (heliocentric ecliptic J2000)
Element | Value | Uncertainty (1-sigma) | Units |
e | .1430758210883915 | 4.7178e-08 | |
a | 2.400870410388528 | 1.3417e-08 | au |
q | 2.057363905095366 | 1.0789e-07 | au |
i | 2.155263229343829 | 4.5275e-06 | deg |
node | 111.5273003062247 | 0.00014122 | deg |
peri | 8.0695187398799 | 0.00014265 | deg |
M | 64.24750312054361 | 1.9429e-05 | deg |
tp | 2458758.003620450470 (2019-Oct-01.50362045) | 7.2804e-05 | TDB |
period | 1358.787383130478 3.72 | 1.139e-05 3.118e-08 | d yr |
n | .2649421127024337 | 2.2209e-09 | deg/d |
Q | 2.74437691568169 | 1.5337e-08 | au |
|
| | Orbit Determination Parameters
Additional Information
|
[ show covariance matrix ]
Physical Parameter Table
Parameter |
Symbol |
Value |
Units |
Sigma |
Reference |
Notes |
absolute magnitude |
H |
17.3 |
|
n/a |
MPO454537 |
|
|
214154 (2005 CJ5) Discovered 2005-Feb-01 by Spacewatch at Kitt Peak |
Reference: 20090509/Numbers.arc | Last Updated: 2009-05-11 |
|
[ show close-approach data ]
|